Aérodrome :
LOGIN :

S'inscrire | Disclaimer

   EN    FR    IT 

 










Légende :    VFR   VFR Marginal   IFR   IFR Intensif   IFR Très Intensif
Visi : 
Plafond : 
>= 8 km
>= 3000ft
5 à 8 km
1000 à 3000 ft
1500m à 5 km
500 à 1000 ft
800 à 1500m
200 à 500 ft
< 800m
< 200 ft
Symboles :   Orages  Brouillard  Fortes neiges  Fortes précipitations  Vent > 20 kt
SIGMETs :   Divers  Orages  Givrage  Turbulence  Onde Orograph.  Cendres Volcan.







- Altitude de l'aérodrome : 41 ft


LIRE - Pratica di Mare Air Base Pomezia

DERNIER METAR :
  • 230355Z 10004KT 9999 FEW020 12/10 Q1020 RMK FEW VIS MIN 9999 WIND THR13 07002KT WIND THR31 /////KT BLU

METARs EXPIRÉS :
  • 230255Z 08005KT CAVOK 13/11 Q1020 RMK SKC VIS MIN 9999 WIND THR13 06002KT WIND THR31 /////KT BLU
  • 230155Z 08005KT CAVOK 13/11 Q1020 RMK SKC VIS MIN 9999 WIND THR13 06003KT WIND THR31 /////KT BLU

TAF TAF LIRE
Valide du 23 à 03h jusqu'au 23 à 12h UTC


230200Z 2303/2312 11009KT 9999 SCT040
Pas de NOTAMs connus pour ce terrain.



MET'MAP, la Météo Aéronautique d'un coup d'oeil ! - Copyright ORBIFLY Décembre 2007 - Disclaimer

ORBIFLY MET'MAP TEAM :

Programmation & Développement : Alexandra Zaïnal
Conception & Développement : Baudouin d'Aumeries
Co-Programmation & Développement : Marc-Olivier Méhu
Soutien technique & logistique : Manuel Goepfert

Contact : metmap@orbifly.com




SOURCES & CREDITS :

   NOAA